Location: Krakow
(50.0830°N, 19.9170°E)
Time: 16:40:00
(UTC+02:00)

Courier 1B - Pass Details

Date: 21 March 2026
Orbit: 962 x 1209 km, 28.3° (Epoch: 19 April)

Event Time Altitude Azimuth Distance (km) Brightness Sun altitude
Rises 07:18:31 0° 217° (SW) 4,068 10.5 14.6°
Reaches altitude 10° 07:24:14 10° 184° (S) 3,058 10.4 15.4°
Maximum altitude 07:26:00 11° 170° (S) 2,971 10.5 15.7°
Drops below altitude 10° 07:27:46 10° 156° (SSE) 3,020 10.8 16.0°
Sets 07:33:15 0° 123° (ESE) 3,912 12.3 16.8°
